Погода в Гонаиве

Гаити     19°26′44″N   72°41′21″W
В апреле 2022 года жителям России запретили посещать сайт meteo.paraplan.net по решению Генеральной прокуратуры. Аудитория сайта уменьшилась в 10 раз. Владельцы сайта не видят смысла в поддержке погодного сервера в таких условиях. Сайт будет закрыт в октябре.
темп.,
°C
ветер,
м/с
пор.,
м/с
влажн.,
%
обл.,
%
осадки,
мм/ч
давл.,
гПа
погр.,
м
30 сентября, пт
пт3023:00+24всв11836 0.0 101093
02:00+23всв228711 0.0 100961
05:00+23вюв228910 0.2 100854
08:00+24ююв11848 0.5 1010164
11:00+27ююз2367100 0.1 1011911
14:00+28зюз326283 0.1 1009842
17:00+28з22621 0.0 1007592
20:00+25зсз22754 0.1 100969
1 октября, сб
сб123:00+24всв217783 0.4 101045
02:00+23всв11835 0.3 101040
05:00+23в22825 0.0 101051
08:00+25в1173100 0.0 1012119
11:00+29ю225642 0.0 1013891
14:00+29зюз325915 0.0 1011911
17:00+29з225619 0.0 1010462
20:00+26ссв126766 0.1 101336
2 октября, вс
вс223:00+25св227610 0.0 101442
02:00+24св11785 0.0 101344
05:00+23всв11805 0.0 101345
08:00+25всв11725 0.0 1015140
11:00+29ююз225699 0.0 10151014
14:00+28юз336447 0.8 1014560
17:00+29зюз225965 1.9 1014751
20:00+26зсз227397 1.9 1015131
3 октября, пн
пн323:00+25с117591 0.0 1016126
02:00+25св117822 0.1 101433
05:00+24всв1182100 0.1 101436
08:00+25св127578 0.1 1015148
11:00+29зюз21595 0.0 10151026
14:00+30зюз425862 0.1 10131029
17:00+29зсз436396 1.1 1013721
20:00+26с237451 1.1 101480
4 октября, вт
вт423:00+25св2380100 0.4 101573
02:00+24св228389 0.6 101357
05:00+24всв2282100 0.0 101348
08:00+25всв117388 0.0 1013143
11:00+30юз11566 0.0 10141017
14:00+30зюз425916 0.1 1012954
17:00+28зсз336998 1.7 1011499
20:00+26св337995 6.6 101369